Location: Chillicothe
(39.7950°N, 93.5520°W)
Time: 18:31:11
(UTC-06:00)

Explorer 11/Cluster Stage 4 - Pass Details

Date: 28 October 2019
Orbit: 467 x 1259 km, 28.8° (Epoch: 17 November)

Event Time Altitude Azimuth Distance (km) Brightness Sun altitude
Rises 05:27:03 0° 211° (SSW) 3,474 - -25.7°
Exits shadow 05:30:55 - 187° (S) 2,486 9.0 -25.0°
Reaches altitude 10° 05:32:13 10° 175° (S) 2,281 9.0 -24.8°
Maximum altitude 05:33:17 11° 164° (SSE) 2,189 9.0 -24.6°
Drops below altitude 10° 05:34:20 10° 152° (SSE) 2,177 9.1 -24.4°
Sets 05:38:40 0° 112° (ESE) 2,878 10.6 -23.5°
